Location: Catstown
(52.4386°N, 7.2633°W)
Time: 04:38:55
(UTC+00:00)

Meteor 1-12 Rocket - Pass Details

Date: 18 September 2020
Orbit: 854 x 927 km, 81.2° (Epoch: 20 October)

Event Time Altitude Azimuth Distance (km) Brightness Sun altitude
Rises 19:51:14 0° 179° (S) 3,536 7.2 -12.1°
Reaches altitude 10° 19:53:44 10° 176° (S) 2,589 6.5 -12.4°
Maximum altitude 19:59:33 63° 97° (E) 1,001 4.3 -13.3°
Drops below altitude 10° 20:05:18 10° 18° (NNE) 2,558 6.7 -14.1°
Sets 20:07:45 0° 16° (NNE) 3,491 7.5 -14.4°
